Freedom of the Seas — C6UZ7 — position and weather

sailwx.info

Track history (hours):
 
Tides and Currents Weather Stations Pressure Air Temp Water Temp Dewpoint Dewpoint Depression Visibility Wind Speed Wind Dir Waves Ship Positions

Freedom of the Seas

Last reported at 2017-Mar-27 00:30 UTC. Time now 2017-Mar-28 08:09 UTC.
Position N 25°32' W 079°50'.

Length 339 m; draft 9 m.

Type: Passenger vessel. MMSI: 309906000.

Date/timePositionNaut miles runAvg speedWind from/ knotsBaromVisibWave heightAir tempDewpointWater temp
2017-Mar-27 00:30N 25°32' W 079°50'1616.5
2017-Mar-26 23:34N 25°47' W 079°50'1717.0
2017-Mar-26 22:33N 26°01' W 080°02'6 6.1
2017-Mar-26 21:32N 26°05' W 080°07'0 0.0
2017-Mar-26 20:32N 26°05' W 080°07'0 0.0
2017-Mar-26 19:32N 26°05' W 080°07'0 0.0
2017-Mar-26 18:29N 26°05' W 080°07'0 0.0
2017-Mar-26 17:32N 26°05' W 080°07'0 0.0
2017-Mar-26 16:32N 26°05' W 080°07'0 0.0
2017-Mar-26 15:32N 26°05' W 080°07'0 0.0
2017-Mar-26 14:32N 26°05' W 080°07'0 0.0
2017-Mar-26 13:32N 26°05' W 080°07'0 0.0
2017-Mar-26 12:32N 26°05' W 080°07'0 0.0
2017-Mar-26 11:32N 26°05' W 080°07'0 0.0
2017-Mar-26 10:32N 26°05' W 080°07'0 0.0
2017-Mar-26 09:33N 26°05' W 080°07'4 3.7
2017-Mar-26 08:34N 26°06' W 080°03'1212.2
2017-Mar-26 07:33N 25°54' W 079°58'1717.4
2017-Mar-26 06:33N 25°38' W 079°53'42318.7
2017-Mar-25 08:00N 21°00' W 074°06'48319.3 090 / 231016.310.8 23.019.925.4
2017-Mar-24 07:00N 18°42' W 065°54'6317.9 260 / 51014.610.8 24.022.526.4
2017-Mar-24 03:27N 18°11' W 064°56'65 1.3
2017-Mar-22 02:32N 18°31' W 066°01'6 6.3
2017-Mar-22 01:33N 18°28' W 066°07'0 0.0
2017-Mar-22 00:33N 18°28' W 066°07'0 0.0
2017-Mar-21 23:33N 18°28' W 066°07'0 0.0
2017-Mar-21 22:33N 18°28' W 066°07'0 0.0
2017-Mar-21 21:33N 18°28' W 066°07'0 0.0
2017-Mar-21 20:33N 18°28' W 066°07'0 0.0
2017-Mar-21 19:33N 18°28' W 066°07'0 0.0
2017-Mar-21 18:33N 18°28' W 066°07'0 0.0
2017-Mar-21 17:30N 18°28' W 066°07'1 0.7
2017-Mar-21 16:33N 18°28' W 066°07'16417.2
2017-Mar-21 07:00N 19°30' W 068°48'24610.3 060 / 171015.810.8 24.520.726.3
2017-Mar-20 07:00N 20°12' W 073°06'49815.8 020 / 201016.910.8 24.021.025.9
2017-Mar-18 23:33N 25°47' W 079°46'1818.0
2017-Mar-18 22:34N 26°00' W 079°60'8 7.6
2017-Mar-18 21:32N 26°05' W 080°07'0 0.0
2017-Mar-18 20:32N 26°05' W 080°07'0 0.0
2017-Mar-18 19:32N 26°05' W 080°07'0 0.0
2017-Mar-18 18:32N 26°05' W 080°07'0 0.0
2017-Mar-18 17:32N 26°05' W 080°07'0 0.0
2017-Mar-18 16:32N 26°05' W 080°07'0 0.0
2017-Mar-18 15:32N 26°05' W 080°07'0 0.0
2017-Mar-18 14:32N 26°05' W 080°07'0 0.0
2017-Mar-18 13:32N 26°05' W 080°07'0 0.0
2017-Mar-18 12:32N 26°05' W 080°07'0 0.0
2017-Mar-18 11:32N 26°05' W 080°07'0 0.0
2017-Mar-18 10:32N 26°05' W 080°07'0 0.0
2017-Mar-18 09:32N 26°05' W 080°07'3 3.5
2017-Mar-18 08:33N 26°06' W 080°03'1211.5
2017-Mar-18 07:33N 25°57' W 079°55'1312.7
2017-Mar-18 06:33N 25°45' W 079°49'1716.7
2017-Mar-18 05:33N 25°29' W 079°50'35417.2
2017-Mar-17 09:00N 22°12' W 085°12'   070 / 241022.210.8 22.013.426.3
Track history (hours):
 
Tides and Currents Weather Stations Pressure Air Temp Water Temp Dewpoint Dewpoint Depression Visibility Wind Speed Wind Dir Waves Ship Positions

Freedom of the Seas

Last reported at 2017-Mar-27 00:30 UTC. Time now 2017-Mar-28 08:09 UTC.
Position N 25°32' W 079°50'.

Length 339 m; draft 9 m.

Type: Passenger vessel. MMSI: 309906000.

Date/timePositionNaut miles runAvg speedWind from/ knotsBaromVisibWave heightAir tempDewpointWater temp
2017-Mar-27 00:30N 25°32' W 079°50'1616.5
2017-Mar-26 23:34N 25°47' W 079°50'1717.0
2017-Mar-26 22:33N 26°01' W 080°02'6 6.1
2017-Mar-26 21:32N 26°05' W 080°07'0 0.0
2017-Mar-26 20:32N 26°05' W 080°07'0 0.0
2017-Mar-26 19:32N 26°05' W 080°07'0 0.0
2017-Mar-26 18:29N 26°05' W 080°07'0 0.0
2017-Mar-26 17:32N 26°05' W 080°07'0 0.0
2017-Mar-26 16:32N 26°05' W 080°07'0 0.0
2017-Mar-26 15:32N 26°05' W 080°07'0 0.0
2017-Mar-26 14:32N 26°05' W 080°07'0 0.0
2017-Mar-26 13:32N 26°05' W 080°07'0 0.0
2017-Mar-26 12:32N 26°05' W 080°07'0 0.0
2017-Mar-26 11:32N 26°05' W 080°07'0 0.0
2017-Mar-26 10:32N 26°05' W 080°07'0 0.0
2017-Mar-26 09:33N 26°05' W 080°07'4 3.7
2017-Mar-26 08:34N 26°06' W 080°03'1212.2
2017-Mar-26 07:33N 25°54' W 079°58'1717.4
2017-Mar-26 06:33N 25°38' W 079°53'42318.7
2017-Mar-25 08:00N 21°00' W 074°06'48319.3 090 / 231016.310.8 23.019.925.4
2017-Mar-24 07:00N 18°42' W 065°54'6317.9 260 / 51014.610.8 24.022.526.4
2017-Mar-24 03:27N 18°11' W 064°56'65 1.3
2017-Mar-22 02:32N 18°31' W 066°01'6 6.3
2017-Mar-22 01:33N 18°28' W 066°07'0 0.0
2017-Mar-22 00:33N 18°28' W 066°07'0 0.0
2017-Mar-21 23:33N 18°28' W 066°07'0 0.0
2017-Mar-21 22:33N 18°28' W 066°07'0 0.0
2017-Mar-21 21:33N 18°28' W 066°07'0 0.0
2017-Mar-21 20:33N 18°28' W 066°07'0 0.0
2017-Mar-21 19:33N 18°28' W 066°07'0 0.0
2017-Mar-21 18:33N 18°28' W 066°07'0 0.0
2017-Mar-21 17:30N 18°28' W 066°07'1 0.7
2017-Mar-21 16:33N 18°28' W 066°07'16417.2
2017-Mar-21 07:00N 19°30' W 068°48'24610.3 060 / 171015.810.8 24.520.726.3
2017-Mar-20 07:00N 20°12' W 073°06'49815.8 020 / 201016.910.8 24.021.025.9
2017-Mar-18 23:33N 25°47' W 079°46'1818.0
2017-Mar-18 22:34N 26°00' W 079°60'8 7.6
2017-Mar-18 21:32N 26°05' W 080°07'0 0.0
2017-Mar-18 20:32N 26°05' W 080°07'0 0.0
2017-Mar-18 19:32N 26°05' W 080°07'0 0.0
2017-Mar-18 18:32N 26°05' W 080°07'0 0.0
2017-Mar-18 17:32N 26°05' W 080°07'0 0.0
2017-Mar-18 16:32N 26°05' W 080°07'0 0.0
2017-Mar-18 15:32N 26°05' W 080°07'0 0.0
2017-Mar-18 14:32N 26°05' W 080°07'0 0.0
2017-Mar-18 13:32N 26°05' W 080°07'0 0.0
2017-Mar-18 12:32N 26°05' W 080°07'0 0.0
2017-Mar-18 11:32N 26°05' W 080°07'0 0.0
2017-Mar-18 10:32N 26°05' W 080°07'0 0.0
2017-Mar-18 09:32N 26°05' W 080°07'3 3.5
2017-Mar-18 08:33N 26°06' W 080°03'1211.5
2017-Mar-18 07:33N 25°57' W 079°55'1312.7
2017-Mar-18 06:33N 25°45' W 079°49'1716.7
2017-Mar-18 05:33N 25°29' W 079°50'35417.2
2017-Mar-17 09:00N 22°12' W 085°12'   070 / 241022.210.8 22.013.426.3

Dump ship's entire track history